Pendleton, OR

2:34 AM PDT on May 27, 2017 (GMT -0700)
Eastern Oreg Regional At Pendleton

Weather History for KPDT - May, 2013

Change the Weather History Date:

Friday, May 10, 2013

  Actual Average Record
Temperature  
Mean Temperature 72 °F 56 °F  
Max Temperature 92 °F 69 °F 93 °F (1924)
Min Temperature 51 °F 44 °F 29 °F (1999)
Degree Days  
Heating Degree Days 0 9  
Month to date heating degree days 51 103  
Since 1 July heating degree days 4838 5050  
Cooling Degree Days 7 1  
Month to date cooling degree days 16 1  
Year to date cooling degree days 16 2  
Growing Degree Days 21 (Base 50)    
Moisture  
Dew Point 44 °F    
Average Humidity 43    
Maximum Humidity 71    
Minimum Humidity 14    
Precipitation  
Precipitation 0.00 in 0.04 in 0.36 in (1961)
Month to date precipitation 0.00 0.42  
Year to date precipitation 2.85 5.48  
Snow  
Snow 0.00 in 0.00 in 0.00 in (2002)
Month to date snowfall 0.0 0.0  
Year to date snowfall 0.2 7.7  
Since 1 July snowfall 2.0 15.2  
Snow Depth 0.00 in    
Sea Level Pressure  
Sea Level Pressure 30.06 in    
Wind  
Wind Speed 8 mph (ENE)    
Max Wind Speed 16 mph    
Max Gust Speed 19 mph    
Visibility 10 miles    
Events      
T = Trace of Precipitation, MM = Missing Value Source: NWS Daily Summary

Daily Weather History Graph

Daily Weather History Graph

Search for Another Location

Airport or City:

Trip Planner

Search our weather history database for the weather conditions in past years. The results will help you decide how hot, cold, wet, or windy it might be!

Date:

Astronomy

May. 10, 2013 Rise Set
Actual Time 5:29 AM PDT 8:14 PM PDT
Civil Twilight 4:55 AM PDT 8:48 PM PDT
Nautical Twilight 4:12 AM PDT 9:32 PM PDT
Astronomical Twilight 3:22 AM PDT 10:22 PM PDT
Moon 5:57 AM PDT (5/10) 9:09 PM PDT (5/10)
Length of Visible Light 15h 52m
Length of Day
14h 44m
New Moon, 1% of the Moon is Illuminated
May 10
New Moon
May 17
First Quarter
May 24
Full
May 31
Last Quarter
Jun 8
New

Hourly Weather History & Observations

Time (PDT) Temp. Dew Point Humidity Pressure Visibility Wind Dir Wind Speed Gust Speed Precip Events Conditions
12:53 AM 59.0 °F 45.0 °F 60% 30.04 in 10.0 mi ESE 9.2 mph - N/A   Clear
1:53 AM 59.0 °F 45.0 °F 60% 30.05 in 10.0 mi SE 11.5 mph - N/A   Clear
2:53 AM 54.0 °F 44.1 °F 69% 30.06 in 10.0 mi ESE 10.4 mph - N/A   Clear
3:53 AM 55.0 °F 43.0 °F 64% 30.07 in 10.0 mi SE 4.6 mph - N/A   Clear
5:53 AM 55.4 °F 42.8 °F 63% 30.13 in 10.0 mi SE 9.2 mph - N/A   Clear
6:53 AM 59.0 °F 45.0 °F 60% 30.10 in 10.0 mi SE 8.1 mph - N/A   Clear
7:53 AM 64.9 °F 44.1 °F 47% 30.11 in 10.0 mi SSE 6.9 mph - N/A   Clear
8:53 AM 71.1 °F 46.0 °F 41% 30.10 in 10.0 mi SSE 6.9 mph - N/A   Clear
9:53 AM 78.1 °F 46.0 °F 32% 30.09 in 10.0 mi North 3.5 mph - N/A   Clear
10:53 AM 81.0 °F 48.0 °F 31% 30.10 in 10.0 mi NW 12.7 mph - N/A   Clear
11:53 AM 84.0 °F 46.9 °F 27% 30.09 in 10.0 mi NNW 13.8 mph - N/A   Clear
12:53 PM 87.1 °F 45.0 °F 23% 30.07 in 10.0 mi NW 10.4 mph - N/A   Clear
1:53 PM 89.1 °F 41.0 °F 19% 30.05 in 10.0 mi NNW 8.1 mph - N/A   Clear
2:53 PM 90.0 °F 36.0 °F 15% 30.05 in 10.0 mi NW 5.8 mph - N/A   Clear
3:53 PM 91.0 °F 35.1 °F 14% 30.02 in 10.0 mi WNW 8.1 mph - N/A   Clear
4:53 PM 91.0 °F 37.9 °F 15% 30.02 in 10.0 mi WNW 10.4 mph - N/A   Clear
5:53 PM 89.1 °F 41.0 °F 19% 30.01 in 10.0 mi NNW 9.2 mph - N/A   Clear
6:53 PM 82.0 °F 48.0 °F 30% 30.00 in 10.0 mi North 5.8 mph - N/A   Clear
7:53 PM 75.0 °F 45.0 °F 34% 30.01 in 10.0 mi NE 8.1 mph - N/A   Clear
8:53 PM 70.0 °F 44.1 °F 39% 30.02 in 10.0 mi East 10.4 mph - N/A   Clear
9:53 PM 72.0 °F 46.0 °F 40% 30.03 in 10.0 mi SSE 5.8 mph - N/A   Clear
10:53 PM 70.0 °F 45.0 °F 41% 30.04 in 10.0 mi SE 6.9 mph - N/A   Clear
11:53 PM 66.9 °F 46.9 °F 49% 30.06 in 10.0 mi Calm Calm - N/A   Scattered Clouds